Location: Oberstdorf
(47.4188°N, 10.2969°E)
Time: 18:26:13
(UTC+01:00)

ISS - Pass Details

Date: 04 January 2018
Orbit: 402 x 407 km, 51.6° (Epoch: 19 January)

Event Time Altitude Azimuth Distance (km) Brightness Sun altitude
Exits shadow 05:21:03 19° 62° (ENE) 1,049 -1.2 -26.9°
Drops below altitude 10° 05:22:06 10° 64° (ENE) 1,471 -0.3 -26.7°
Sets 05:24:11 0° 66° (ENE) 2,334 1.0 -26.4°
